Simultaneous Nadir Overpasses (SNOs) Predictions

Prediction of SNOs between FY3D and NOAA-19 Satellite Orbit:

Table of predicted SNOs for the next 14.0 days since TLE Epoch: 2/20/2021
Index Date (FY3D) Time (FY3D) Lat,Lon (FY3D) SZA (FY3D ) Date (NOAA-19) Time (NOAA-19) Lat,Lon (NOAA-19) SZA (NOAA-19 ) Distance(km) Time Diff (sec)
1 03/01/2021 19:51:00 78.42,-142.61 86.96 03/01/2021 19:49:56 78.44,-146.61 87.40 89.35 64
2 03/01/2021 20:41:53 -78.75, 22.71 92.58 03/01/2021 20:40:50 -78.75, 22.79 92.56 1.78 63
3 03/01/2021 21:32:37 78.77,-170.08 87.43 03/01/2021 21:31:47 78.73,-170.07 87.43 3.73 50
4 03/01/2021 22:23:21 -78.75, -2.66 92.61 03/01/2021 22:22:49 -78.76, -2.60 92.59 2.03 32
5 03/01/2021 23:14:06 78.77, 164.55 87.41 03/01/2021 23:13:47 78.75, 164.53 87.40 2.24 19
6 03/02/2021 00:04:50 -78.75, -28.04 92.63 03/02/2021 00:04:49 -78.78, -27.99 92.61 3.19 1
7 03/02/2021 00:55:35 78.77, 139.17 87.38 03/02/2021 00:55:47 78.76, 139.14 87.38 1.03 12
8 03/02/2021 01:46:20 -78.79, -53.65 92.61 03/02/2021 01:46:50 -78.76, -53.63 92.64 3.27 30
9 03/02/2021 02:37:04 78.77, 113.80 87.36 03/02/2021 02:37:47 78.77, 113.74 87.35 1.39 43
10 03/02/2021 03:27:49 -78.79, -79.03 92.63 03/02/2021 03:28:50 -78.77, -79.02 92.67 1.68 61
11 03/02/2021 04:18:33 78.77, 88.42 87.33 03/02/2021 04:19:47 78.79, 88.35 87.32 2.75 74



Historial Predications of SNOs between FY3D and NOAA-19
